Location: Kalberh�ni
(46.4610°N, 7.2453°E)
Time: 07:07:59
(UTC+00:00)

Cosmos 1900 - Pass Details

Date: 20 June 2021
Orbit: 691 x 731 km, 66.1° (Epoch: 28 July)

Event Time Altitude Azimuth Distance (km) Brightness Sun altitude
Rises 20:32:17 0° 324° (NW) 3,090 10.0 -9.1°
Reaches altitude 10° 20:34:38 10° 324° (NW) 2,164 8.5 -9.3°
Maximum altitude 20:39:34 85° 237° (WSW) 702 4.3 -9.9°
Enters shadow 20:43:49 14° 150° (SSE) 1,905 5.9 -10.3°
